Preview of NWS' New Version of Forecast
This preview is not operational and should not be used for support decisions.

Regional Weather Roundup (RWR)

Issued by National Weather Service (NWS)

                            
000
ASUS42 KTBW 201718
RWRFL 
FLORIDA REGIONAL WEATHER ROUNDUP
NATIONAL WEATHER SERVICE TAMPA BAY RUSKIN FL
100 PM EDT TUE AUG 20 2019

NOTE: "FAIR" INDICATES FEW OR NO CLOUDS BELOW 12,000 FEET WITH NO
SIGNIFICANT WEATHER AND/OR OBSTRUCTIONS TO VISIBILITY.

FLZ001>010-012>015-112-114-115-201800-
PANHANDLE FLORIDA
  
CITY           SKY/WX    TMP DP  RH WIND       PRES   REMARKS
PENSACOLA      LGT RAIN  78  78 100 S5        30.10R                  
PENSACOLA NAS  LGT RAIN  79  78  97 S10       30.09S                  
MILTON NAS     RAIN      77  77 100 SE9       30.11  FOG              
CRESTVIEW      FAIR      87  74  64 VRB6      30.12R HX  95           
TRI COUNTY     CLOUDY    86  74  67 S5        30.12R                  
PANAMA CITY    PTSUNNY   85  74  69 SE9       30.10R                  
APALACHICOLA   FAIR      87  77  72 SE12      30.10F HX  99           

STATION/POSITION SKY/WX   TEMP    WIND        PRES    WAVE   SWELL
                          AIR SEA DIR/SP/G            HT/PER HT/PER
                          (F)     (DEG/KT/KT) (MB)    (FT/S) (FT/S)
30.1N   87.6W              79 85  320/  4/  4 1019.2S   2/ 6   2/ 6
29.2N   88.2W              82 83  140/ 10/ 12 1018.9F   2/ 6   2/ 6
28.8N   86.0W                 85  110/ 10/ 14 1019.1S   2/ 6   2/ 6
PANAMA CITY BEAC           84 85  160/ 11/ 13 1019.7
TOWER C                    82     120/ 14/ 15 1019.5F
28.5N   84.5W              83     100/ 10/ 14 1019.8F

$$
FLZ011-016>038-118-127-128-134-139-239-201800-
NORTH FLORIDA
  
CITY           SKY/WX    TMP DP  RH WIND       PRES   REMARKS
MARIANNA       FAIR      86  74  67 VRB6      30.10S                  
TALLAHASSEE    PTSUNNY   88  74  63 E5        30.10F HX  96           
PERRY          FAIR      87  77  71 CALM      30.12F HX  99           
LIVE OAK       MOSUNNY   86  75  70 VRB3      30.12F HX  95           
CROSS CITY     PTSUNNY   87  76  70 SE6       30.11F HX  98           
LAKE CITY      FAIR      88  73  62 E6        30.13F HX  96           
GAINESVILLE    FAIR      87  75  67 SE8       30.14F HX  96           
WILLISTON      FAIR      87  74  64 SE6       30.11F HX  96           
MAYPORT NAS    PTSUNNY   88  76  67 E9        30.13F HX  99           
JACKSONVILLE   PTSUNNY   89  72  56 E3        30.11F HX  96           
JAX NAS        PTSUNNY   88  73  61 SE7       30.12F HX  95           
JAX CECIL      PTSUNNY   91  73  55 CALM      30.12F HX 100           
FERNANDINA BEA FAIR      86  78  77 E10       30.13F HX  99           
ST AUGUSTINE   FAIR      88  79  74 E12       30.13F HX 102           
PALM COAST     MOSUNNY   90  73  58 SE10      30.12F HX  98           

STATION/POSITION SKY/WX   TEMP    WIND        PRES    WAVE   SWELL
                          AIR SEA DIR/SP/G            HT/PER HT/PER
                          (F)     (DEG/KT/KT) (MB)    (FT/S) (FT/S)
SHELL POINT      NOT AVBL
KEATON BEACH               82     190/  8/  8 1019.8F
CEDAR KEY                  81     100/  6/  7 1020.2F
FERNANDINA                 91 81              1021.0F
30.7N   81.3W                 85                N/A     1/ 9
MAYPORT                    85 82  100/  5/  9 1020.8F
31.4N   80.9W              83 84     CALM     1020.4F   1/ 9   2/ 9
ST AUGUSTINE               82 82  100/  9/  9 1020.3F

$$
FLZ040-043>046-052-053-057-058-063-144-201800-
INTERIOR CENTRAL FLORIDA
  
CITY           SKY/WX    TMP DP  RH WIND       PRES   REMARKS
OCALA          FAIR      88  73  61 SE6       30.11F HX  95           
LEESBURG       PTSUNNY   90  72  55 SE10      30.12F HX  97           
SANFORD        FAIR      90  71  53 SE10      30.11F HX  96           
ORLANDO EXEC   FAIR      90  71  53 SE10      30.11F HX  96           
ORLANDO INTL   FAIR      89  71  55 E8        30.10F HX  95           
KISSIMMEE      FAIR      88  73  61 SE9       30.11F HX  95           
WINTER HAVEN   FAIR      89  72  56 S9        30.11F HX  96           
LAKELAND       PTSUNNY   88  72  58 SE7       30.11F                  
BARTOW         PTSUNNY   90  73  58 E10       30.10F HX  98           
SEBRING        FAIR      87  73  62 SE12G18   30.11F                  
OKEECHOBEE     FAIR      86  73  66 S6        30.10F                  

$$
FLZ041-047-054-059-064-141-147-201800-
EAST CENTRAL FLORIDA
  
CITY           SKY/WX    TMP DP  RH WIND       PRES   REMARKS
ORMOND BEACH   MOSUNNY   88  73  62 E9        30.12F HX  96           
DAYTONA BEACH  PTSUNNY   88  77  69 E10       30.12F HX 100           
DELAND         FAIR      88  73  62 E9        30.11F HX  96           
NEW SMYRNA BEA MOSUNNY   90  72  55 SE14      30.13F HX  96           
TITUSVILLE     MOSUNNY   90  73  58 SE8       30.12F HX  98           
MELBOURNE      FAIR      89  73  59 SE17      30.10F HX  97           
VERO BEACH     LGT RAIN  87  72  60 SE14      30.12F                  
FT PIERCE      FAIR      86  72  62 SE15      30.11F                  
STUART         MOSUNNY   86  73  66 SE12      30.12F                  

STATION/POSITION SKY/WX   TEMP    WIND        PRES    WAVE   SWELL
                          AIR SEA DIR/SP/G            HT/PER HT/PER
                          (F)     (DEG/KT/KT) (MB)    (FT/S) (FT/S)
28.5N   80.2W              84 85  150/  8/ 10 1019.9F   2/ 8   2/ 8
28.9N   78.5W              85 86  140/  8/ 10 1021.0F   2/ 6   2/ 6
TRIDENT PIER               86 81  120/  5/  8 1021.6F
28.4N   80.5W                 82                N/A     2/ 5
27.5N   80.2W                 83                N/A     2/ 4

$$
FLZ050-056-061-142-242-148-248-149-249-151-251-155-255-
160-260-201800-
WEST CENTRAL FLORIDA
  
CITY           SKY/WX    TMP DP  RH WIND       PRES   REMARKS
CRYSTAL RIVER  PTSUNNY   88  73  62 E8        30.10F HX  96           
INVERNESS      PTSUNNY   88  79  74 E6        30.11F HX 102           
BROOKSVILLE    PTSUNNY   89  74  60 E5        30.10F HX  98           
CLEARWATER AIR FAIR      86  72  62 E8        30.09F                  
ST PETE CLEARW FAIR      89  74  60 E10       30.09F HX  98           
TAMPA INTL     PTSUNNY   90  72  55 SE10      30.10F HX  97           
PLANT CITY     CLOUDY    88  77  70 E7        30.12F HX 100           
PETER O KNIGHT PTSUNNY   90  77  66 SE6       30.10F HX 102           
ST PETERSBURG  FAIR      81  76  84 E7        30.11S                  
SARASOTA       FAIR      89  74  60 SE8       30.07F HX  98           
VENICE         PTSUNNY   91  75  59 E9G15     30.09F HX 102           

STATION/POSITION SKY/WX   TEMP    WIND        PRES    WAVE   SWELL
                          AIR SEA DIR/SP/G            HT/PER HT/PER
                          (F)     (DEG/KT/KT) (MB)    (FT/S) (FT/S)
27.3N   84.2W                 85                N/A     3/ 4
CLEARWATER BEACH           86 86  100/  7/ 11 1019.4
MIDDLE TAMPA BAY           86     150/  4/  7 1019.6F
VENICE                     85 85  180/  9/ 10 1018.5F

$$
FLZ066-069-070-075>078-162-262-165-265-201800-
SOUTHWEST FLORIDA AND KEYS
  
CITY           SKY/WX    TMP DP  RH WIND       PRES   REMARKS
PUNTA GORDA    FAIR      90  74  59 SE10      30.10F HX  99           
FT MYERS       FAIR      89  74  60 SE7       30.07F HX  98           
SOUTHWEST INTL FAIR      90  74  59 SE12      30.08F HX  99           
NAPLES         PTSUNNY   91  74  57 SE10      30.07F HX 100           
IMMOKALEE      FAIR      91  75  59 SE12G17   30.07S HX 102           
MARATHON       FAIR      90  75  61 SE10      30.07F HX 100           
KEY WEST NAS   PTSUNNY   92  75  57 SE15      30.06F HX 103           
KEY WEST INTL  FAIR      86  77  74 SE10      30.07F HX  97           

STATION/POSITION SKY/WX   TEMP    WIND        PRES    WAVE   SWELL
                          AIR SEA DIR/SP/G            HT/PER HT/PER
                          (F)     (DEG/KT/KT) (MB)    (FT/S) (FT/S)
NAPLES                     88 86              1018.5F
26.0N   85.6W              85 86   80/ 12/ 14 1017.9F   3/ 7   2/ 7
DRY TORTUGAS               84     120/ 15/ 16 1018.1R
SAND KEY                   80     100/ 16     1016.6
SOMBRERO KEY               85     110/ 11/ 13 1018.6
LONG KEY                   85                 1017.7F

$$
FLZ067-068-071>074-168-172>174-201800-
SOUTHEAST FLORIDA 
  
CITY           SKY/WX    TMP DP  RH WIND       PRES   REMARKS
W PALM BEACH   FAIR      88  73  61 SE10      30.12F HX  95           
BOCA RATON     SUNNY     90  75  62 SE12G17   30.11S HX 100           
FT LAUDER-EXEC FAIR      87  73  62 E14       30.10S                  
FT LAUDERDALE  FAIR      87  73  62 SE16      30.09F                  
POMPANO BEACH  FAIR      87  74  64 SE10G20   30.10F HX  95           
PEMBROKE PINES FAIR      89  74  60 SE13G23   30.11F HX  98           
OPA LOCKA      FAIR      88  74  63 SE18      30.10F HX  96           
MIAMI          PTSUNNY   87  73  62 SE9G26    30.10S                  
WEST KENDALL   FAIR      88  73  61 SE17G25   30.09S HX  95           
HOMESTEAD      NOT AVBL                                               

STATION/POSITION SKY/WX   TEMP    WIND        PRES    WAVE   SWELL
                          AIR SEA DIR/SP/G            HT/PER HT/PER
                          (F)     (DEG/KT/KT) (MB)    (FT/S) (FT/S)
PORT EVERGLADES            85     120/  6/ 10 1019.7
VIRGINIA KEY               84 88   80/ 13/ 17 1019.0
LAKE WORTH                        140/ 10/ 12   N/A
FOWEY ROCKS                83 86  110/ 22/ 23 1019.1F
SETTLEMENT POINT           85     100/  8/  9 1020.1S

$$